Location: Deurze
(52.9838°N, 6.6090°E)
Time: 18:14:41
(UTC+00:00)

SKYMED 2 - Pass Details

Date: 11 March 2026
Orbit: 622 x 624 km, 97.9° (Epoch: 20 April)

Event Time Altitude Azimuth Distance (km) Brightness Sun altitude
Rises 18:17:15 0° 11° (N) 2,920 7.0 -7.9°
Reaches altitude 10° 18:19:29 10° 8° (N) 2,008 6.2 -8.2°
Maximum altitude 18:23:46 57° 290° (WNW) 740 4.4 -8.8°
Drops below altitude 10° 18:28:01 10° 212° (SSW) 1,992 6.5 -9.5°
Sets 18:30:13 0° 208° (SSW) 2,893 7.3 -9.8°
